Terug naar catalogus

SDA_1666

ActiefWetenschapPO
NORAD 65976·PAYLOAD·🇺🇸 United States

Gelanceerd Oct 15, 2025 vanaf Vandenberg Space Force Base

Loading…

Volgende Passages (komende 24 uur)

TLE

VersSource: Space-Track

Epoch: Sep 14, 2026, 09:09 UTC

1 65976U 25230C   26257.38135864  .00000084  00000-0  67297-4 0  9992
2 65976  81.2992 129.6419 0001314  50.9563 309.1709 13.81922034 46119

Volg SDA_1666 in realtime met AllMySat

Download on the App Store